Regional Weather Roundup
Issued by NWS

Home | Current Version | Previous Version | Text Only | Print | Product List | Glossary Off
Versions: 1 2 3 4 5 6 7 8 9 10 11 12 13 14 15 16 17 18 19 20 21 22 23 24 25 26 27 28 29 30 31 32 33 34 35 36 37 38 39 40 41 42 43 44 45 46 47 48 49 50

000
ASUS43 KDTX 260310
RWRMI
MICHIGAN HOURLY REGIONAL WEATHER ROUNDUP
NATIONAL WEATHER SERVICE DETROIT/PONTIAC MI
1000 PM EST SUN JAN 25 2015

NOTE: "FAIR" INDICATES FEW OR NO CLOUDS BELOW 12,000 FEET WITH NO
SIGNIFICANT WEATHER AND/OR OBSTRUCTION TO VISIBILITY.

MIZ047>049-052>055-059>063-066>070-074>076-081>083-260400-
SOUTHEAST LOWER MICHIGAN

CITY           SKY/WX    TMP DP  RH WIND       PRES   REMARKS
ADRIAN         CLOUDY    19   9  65 NE15      29.95R
ALMA           CLOUDY    17  11  76 NE9       30.04R
ANN ARBOR      CLOUDY    19   9  65 NE9G20    29.96S
BAD AXE        CLOUDY    18  11  76 NE6       30.03F
DETROIT CITY   CLOUDY    19   4  51 NE9       29.99S
DETROIT        CLOUDY    18   5  57 NE9G20    29.98S
FLINT          MOCLDY    18  10  71 NE14      30.00F
GROSSE ILE     CLOUDY    18   7  62 NE13      29.96S
HILLSDALE      CLOUDY    19   6  58 NE12      29.90F
HOWELL         MOCLDY    15   9  78 NE6       29.97F

CITY           SKY/WX    TMP DP  RH WIND       PRES   REMARKS
JACKSON        CLOUDY    18   7  62 NE8       29.95R
LAMBERTVILLE   CLOUDY    21   9  58 NE8       29.95R
LANSING        MOCLDY    17   9  70 NE12      30.00R
LAPEER         NOT AVBL
MASON          MOCLDY    16   9  75 NE13      29.97S
MONROE         CLOUDY    18   9  68 NE9       29.94S
MT. CLEMENS    CLOUDY    18   8  65 NE12      29.97S
PONTIAC        MOCLDY    16   8  71 NE9       29.96S
PORT HOPE        N/A     20  12  71 NE16      30.03F
PORT HURON     MOCLDY    16   9  73 NE8       30.01S
TRI CITIES     CLOUDY    17  10  74 NE10      30.05R
YPSILANTI      CLOUDY    22   9  57 NE16G22   29.97S
$$
MIZ043>046-050>051-056>058-064>065-071>073-077>080-260400-
SOUTHWEST LOWER MICHIGAN

CITY           SKY/WX    TMP DP  RH WIND       PRES   REMARKS
BATTLE CREEK   PTCLDY    20   8  60 NE10      29.96R
BENTON HARBOR  PTCLDY    19  12  74 NE7       29.98R
BIG RAPIDS     CLEAR     14   5  68 NE3       30.02S
COLDWATER      CLOUDY    20   6  53 NE13G18   29.92S
HOLLAND        CLEAR     20  10  65 NE7       30.01R
GRAND RAPIDS   PTCLDY    17  10  74 E10       30.00S
KALAMAZOO      PTCLDY    19  11  70 NE9       29.96R
MARSHALL       MOCLDY    17   6  62 NE8       29.95R
MUSKEGON       PTCLDY    18   7  62 E6        30.04R
$$
MIZ016>042-260400-
NORTHERN LOWER MICHIGAN

CITY           SKY/WX    TMP DP  RH WIND       PRES   REMARKS
ALPENA         PTCLDY     0  -4  83 W3        30.11R
BEAVER ISLAND  PTCLDY    -3  -6  87 CALM      30.11S
BELLAIRE       CLEAR      1  -2  86 CALM      30.12R
CADILLAC       PTCLDY    -1  -6  80 CALM      30.01S
CHARLEVOIX     CLEAR      6   1  81 S3        30.14R
FRANKFORT      CLEAR     12   8  83 CALM      30.09S
GAYLORD        CLEAR      3   0  87 CALM      30.04R
GRAYLING       CLEAR      0  -4  81 NE5       30.06R
HARBOR SPRINGS PTCLDY     3  -1  82 CALM      30.11R
HOUGHTON LAKE  CLEAR      7   0  73 E6        30.04R
MANISTEE       CLEAR      9   1  72 CALM      30.08R
OSCODA         FLURRIES  14  10  82 N7        30.06F
PELLSTON       PTCLDY    -5  -9  83 CALM      30.11S
TRAVERSE CITY  CLEAR      6   2  83 CALM      30.09R
$$
MIZ007>008-015-260400-
EASTERN UPPER MICHIGAN

CITY           SKY/WX    TMP DP  RH WIND       PRES   REMARKS
KINROSS        MOCLDY    -2  -8  78 CALM      30.11R
MACKINAC ISLAN MOCLDY     6   0  78 N5        30.11R
NEWBERRY       MOCLDY    -6  -8  92 CALM      30.10R
S. S. MARIE      N/A      2  -6  69 E3        30.11S
$$
MIZ004>006-011>014-085-260400-
CENTRAL UPPER MICHIGAN

CITY           SKY/WX    TMP DP  RH WIND       PRES   REMARKS
MANISTIQUE     PTCLDY     5  -3  70 NE3       30.11S
ESCANABA       CLEAR      7   1  78 CALM      30.10S
MENOMINEE      CLOUDY     9   7  92 CALM      30.09S
SAWYER-GWINN   CLEAR      3   0  85 CALM      30.03F
$$
MIZ001>003-009>011-084-260400-
WESTERN UPPER MICHIGAN

CITY           SKY/WX    TMP DP  RH WIND       PRES   REMARKS
IRON MOUNTAIN  CLEAR      2  -1  88 CALM      30.03F
HOUGHTON       CLEAR      6   2  83 E5        29.98F
COPPER HARBOR    N/A      4   0  83 S5        30.03F
IRONWOOD       PTCLDY     5   1  85 SE6       29.95F
$$

ABBREVIATIONS USED IN REMARKS
   TC - TEMPERATURE IN CELSIUS
  WCI - WIND CHILL INDEX
   HX - HEAT INDEX
  VSB - VISIBILITY



USA.gov is the U.S. government's official web portal to all federal, state and local government web resources and services.